Regional Weather Roundup
Issued by NWS New Orleans/Baton Rouge, LA

Home | Current Version | Previous Version | Text Only | Print | Product List | Glossary On
Versions: 1 2 3 4 5 6 7 8 9 10 11 12 13 14 15 16 17 18 19 20 21 22 23 24 25 26 27 28 29 30 31 32 33 34 35 36 37 38 39 40 41 42 43 44 45 46 47 48 49 50
365
ASUS44 KLIX 281311
RWRLIX
NEW ORLEANS REGIONAL WEATHER ROUNDUP
NATIONAL WEATHER SERVICE NEW ORLEANS LA
800 AM CDT SAT MAR 28 2015

NOTE: "FAIR" INDICATES FEW OR NO CLOUDS BELOW 12,000 FEET WITH NO
      SIGNIFICANT WEATHER AND/OR OBSTRUCTIONS TO VISIBILITY.
      SKY/WX - SKY CONDITION AND SIGNIFICANT WEATHER.
      TMP - AIR TEMPERATURE.     DP    - DEWPOINT TEMPERATURE.
      RH  - RELATIVE HUMIDITY.   PRES  - PRESSURE.
      HI  - HEAT INDEX.          WCI   - WIND CHILL INDEX.

*  THESE STATIONS ARE NOT NWS OR FAA STATIONS AND ARE NOT UNDER
   NWS QUALITY CONTROL.

LAZ038-040-048-061>063-065>067-069-281400-
SOUTHEAST LOUISIANA

CITY           SKY/WX    TMP DP  RH WIND       PRES   REMARKS
N.O. AUDUBON   NOT AVBL
N.O. INTL ARPT MOSUNNY   52  37  56 E6        30.23R
N.O. LAKEFRONT SUNNY     54  36  50 E15       30.24R
SLIDELL        SUNNY     45  42  89 CALM      30.24R
BATON ROUGE    SUNNY     44  40  85 NE6       30.24R
BOOTHVILLE     SUNNY     56  46  69 NE6       30.22R
BELLE CHASSE   MOSUNNY   50  42  74 NE3       30.22R
BOGALUSA*        N/A     41  38  89 CALM      30.25S
GALLIANO*      SUNNY     56  45  67 CALM      30.23R
NEW ROADS*       N/A     47  38  73 E5        30.23S
GONZALES*        N/A     47  41  79 CALM      30.23R
HAMMOND*       SUNNY     46  37  71 CALM      30.26R
HOUMA*         SUNNY     48  45  87 NE6       30.22R
PORT FOURCHON* SUNNY     59  46  63 NE10      30.24R

$$

MSZ070-080>082-281400-
SOUTHERN MISSISSIPPI

CITY           SKY/WX    TMP DP  RH WIND       PRES   REMARKS
MCCOMB         SUNNY     42  38  85 CALM      30.23R
GULFPORT       SUNNY     47  38  71 NE7       30.24R
BILOXI         SUNNY     46  39  75 NE8       30.24R
PASCAGOULA     SUNNY     44  40  85 N5        30.25R
STENNIS ARPT*  SUNNY     45  34  65 NE5       30.26R

$$

COASTAL OBSERVATIONS
LAKE AND NEARSHORE STATIONS

STATION/POSITION TIME  TEMP    WIND        PRES    WAVE
                       AIR SEA DIR/SP/G            HT/PER
                 (UTC) (F)     (DEG/KT/KT) (MB)    (FT/S)
PASCAGOULA       1200   44      20/  4/  5 1023.1
WAVELAND YACHT   1200   48 62   50/ 11/ 12 1023.0
GRAND ISLE       1200   57 66   60/  8/ 11 1022.3
SOUTHWEST PASS   1200   55 52   40/ 10/ 12 1022.8
NEW CANAL        1200   52      90/  3/  8 1023.5
SHELL BEACH      1200   54 64   60/ 13/ 16 1022.9

OFFSHORE STATIONS

STATION/POSITION TIME  TEMP    WIND        PRES    WAVE
                       AIR SEA DIR/SP/G            HT/PER
                 (UTC) (F)     (DEG/KT/KT) (MB)    (FT/S)
64 S DAUPHIN ISL 1250   58 71   20/ 12/ 17 1023.2    3/ 5

$$




USA.gov is the U.S. government's official web portal to all federal, state and local government web resources and services.